Temp_Advection
nan nan nan nan nan nan nan nan nan nan nan nan nan nan nan nan nan nan nan nan nan nan nan nan nan nan nan nan nan nan nan nan nan nan nan nan nan nan nan nan nan nan nan nan nan
nan -0 -0 0 -0 0 0 -0 0 0 0 0 0 0 -0 0 -0 -2 -1 0 0 0 0 0 0 0 -0 -0 0 -0 -0 0 -0 0 0 0 -0 -0 -0 -0 0 0 0 0 nan
nan 0 0 0 0 0 0 1 -0 -0 -0 0 0 0 0 0 -1 -1 0 0 0 0 0 0 0 0 0 -0 -0 0 -0 0 0 0 -0 -0 -0 -0 -0 -0 -0 -0 0 0 nan
nan 0 0 0 0 0 0 0 0 -0 0 -0 0 0 0 0 -0 -0 0 0 0 0 0 0 0 0 0 -0 0 -0 0 0 0 0 -0 -0 -0 -0 -0 -0 -0 0 0 0 nan
nan 0 0 0 -0 -0 0 1 0 1 -0 -0 0 0 -0 -1 -0 0 0 0 0 0 0 0 0 0 0 -0 -0 0 0 0 0 0 -0 -0 -1 -1 -0 -0 0 0 0 0 nan
nan 0 0 0 0 -0 0 1 0 0 0 -0 0 0 -0 -1 -0 0 0 0 0 0 -0 -0 0 0 0 0 0 0 -0 0 0 0 -0 -0 0 -0 -1 0 0 0 -0 -0 nan
nan -0 -0 0 -0 -0 0 1 1 0 0 0 0 -0 -1 -0 0 0 0 -0 -0 0 0 -0 0 0 0 0 -0 -0 -0 -0 0 0 0 -0 -1 -1 -0 0 0 -0 0 0 nan
nan -0 -0 -0 -0 -0 -0 0 0 0 -0 -0 0 -0 -1 0 0 0 -0 -0 -0 0 -0 -0 0 0 -0 -0 -0 -0 -0 -0 -0 0 -0 -0 -1 0 0 0 -0 0 0 0 nan
nan -0 0 -0 -0 -0 0 1 1 0 0 0 0 -1 -0 -0 0 0 -0 -0 0 -0 -0 0 -0 -0 0 -0 -0 -0 -0 0 0 -0 -0 -0 -1 -0 1 0 -0 -0 -0 0 nan
nan 0 0 0 0 0 1 0 1 1 1 0 0 -1 -0 0 0 0 0 0 -0 0 0 -0 0 0 0 -0 -0 0 -0 -0 -0 0 0 -0 -1 -1 0 0 0 0 0 0 nan
nan 0 0 0 -1 0 1 -0 0 0 -1 -0 -0 0 -0 0 -0 0 -0 0 0 0 -0 0 0 -0 -0 -0 -0 -0 -1 -1 -1 0 0 -1 -1 -0 0 0 -0 0 0 0 nan
nan 0 0 0 1 0 -0 -0 -0 -0 -0 -0 -0 0 0 0 -0 -0 0 0 0 0 -0 -0 -0 -0 -0 0 0 0 -0 -1 -0 -0 -0 -0 -0 -0 0 0 -0 -0 -1 -0 nan
nan 0 0 0 1 1 -0 -1 -0 0 -0 -0 0 0 0 0 -0 -0 -0 -0 0 -0 -0 -0 -0 -0 -0 -0 -0 -0 -0 0 -0 -1 -0 -0 -0 0 -0 0 0 -0 -1 -1 nan
nan 0 0 0 0 1 0 -0 -0 0 -0 0 0 -0 0 0 -0 -0 0 0 0 -0 -0 0 -0 -0 -0 -0 -0 -0 0 0 0 -1 -0 0 -0 -0 -0 -1 -1 -1 -2 -2 nan
nan 0 -0 -0 -0 0 -0 0 0 -0 0 -0 -0 0 0 0 -0 -0 0 -0 -0 0 0 0 0 -0 -0 -0 -0 0 0 0 0 0 -1 0 -0 -0 -0 -1 -2 -1 -0 -1 nan
nan 0 -0 -0 -0 -0 0 0 0 -0 -0 -0 -0 0 0 0 0 0 0 0 -0 -0 -0 0 -0 -0 -0 -0 -0 0 0 0 0 -0 -0 0 -0 -0 -0 -0 -0 -1 -0 -1 nan
nan 0 -0 -0 -0 -0 0 0 -0 -0 0 0 0 0 0 0 0 -0 -0 0 0 0 0 -0 -0 0 -0 -0 0 0 -0 -0 -0 -0 0 -0 -0 -0 0 -0 0 -0 -1 0 nan
nan 0 -0 -0 -0 0 0 -0 -1 -0 0 0 0 0 -0 -0 -0 -0 -0 0 -0 -0 0 0 0 -0 -0 -0 0 0 0 -0 -0 0 0 -0 0 -0 0 -0 0 0 0 0 nan
nan 0 0 0 0 0 -0 -0 0 0 0 -0 -0 -0 0 -0 -0 -0 -0 0 0 -0 -0 0 -0 -0 -0 -0 -0 -0 0 0 -0 -0 -0 0 0 -0 0 0 0 0 0 0 nan
nan 0 0 0 0 -0 -0 -0 -0 0 0 -0 -0 -0 -0 0 0 -0 -0 -0 0 0 -0 -0 -0 -0 -0 -0 -0 -0 0 0 -0 -0 -0 0 0 0 0 0 0 0 0 0 nan
nan 0 0 0 -0 -1 -0 0 -0 0 -0 -0 -0 -0 -0 -0 -0 -0 0 -0 0 -0 -0 0 -0 0 0 -0 -0 -0 -0 0 -0 -0 -0 -0 0 -0 -0 -1 -0 0 0 0 nan
nan -0 -0 -0 -0 0 0 -0 0 -0 -0 -0 -0 -0 -0 -0 -0 -0 -0 0 0 -0 0 -0 0 -0 -0 -0 -0 -0 -0 0 -0 0 0 -0 -0 -1 -0 -0 0 0 0 0 nan
nan -0 -0 0 0 -0 -0 -0 -0 0 -0 0 -0 0 -0 -0 -0 0 0 0 0 -0 0 0 -0 -0 -0 -0 -0 -0 0 0 0 -0 -1 -0 0 -0 0 0 0 0 0 0 nan
nan -0 -0 -0 0 0 -0 -0 -0 0 0 0 -0 -0 -0 -0 0 -0 0 0 0 0 0 0 -0 -0 -0 0 0 0 0 0 0 -0 -0 -0 -0 0 0 -0 0 0 -0 0 nan
nan -0 -0 -0 -0 0 0 0 -0 -0 0 -0 -0 -0 0 0 -0 -0 0 0 -0 0 -0 -0 0 0 -0 -1 0 0 -0 1 -0 -1 -0 -0 -0 -0 0 0 1 0 0 0 nan
nan -0 -0 -0 -0 -0 -0 -0 0 0 -0 -0 -0 0 0 -0 -0 0 0 0 0 -0 -0 0 -0 0 -0 -0 0 -0 -1 -0 -1 -0 -0 -0 -1 -1 1 1 0 0 0 0 nan
nan nan nan nan nan nan nan nan nan nan nan nan nan nan nan nan nan nan nan nan nan nan nan nan nan nan nan nan nan nan nan nan nan nan nan nan nan nan nan nan nan nan nan nan nan
Wind_Speed
6 7 12 6 7 7 24 11 5 18 15 14 13 15 16 17 17 12 17 9 6 7 7 8 8 9 7 5 5 3 3 4 2 4 1 2 1 2 3 8 6 7 9 10 14
8 8 5 6 7 9 12 15 18 12 16 15 14 15 18 20 15 24 13 9 7 7 8 8 7 7 5 4 3 3 3 3 1 1 3 4 6 5 6 11 13 16 18 17 17
8 11 8 9 6 4 10 17 18 12 16 18 15 16 18 16 8 12 12 9 7 7 8 9 8 6 5 4 3 1 3 2 4 3 4 8 11 12 13 15 19 20 21 18 19
12 13 12 12 7 8 9 16 18 22 6 17 17 17 12 6 4 7 8 7 6 6 5 6 4 4 4 4 2 3 3 3 2 4 5 11 12 12 17 24 24 23 22 22 24
10 12 13 10 6 8 8 21 18 16 14 18 19 16 11 15 10 7 7 6 6 5 6 8 6 4 5 4 3 4 2 6 8 11 15 16 22 19 23 25 23 23 22 24 24
13 13 13 7 3 7 10 26 22 20 19 18 20 13 10 13 11 8 6 4 8 7 8 6 5 7 7 2 2 0 6 11 10 13 11 11 17 6 16 11 15 19 21 23 24
13 13 7 3 4 9 17 24 24 28 20 18 14 13 20 12 11 7 5 9 9 9 10 10 7 3 5 4 1 2 6 7 11 5 4 8 13 14 20 14 14 16 19 20 22
9 5 3 4 8 16 22 28 29 25 24 18 19 6 11 12 10 6 8 10 9 9 8 7 7 8 4 3 1 3 4 4 5 2 1 3 9 3 6 10 19 23 25 26 28
10 8 4 10 16 22 28 30 28 28 22 17 11 12 10 10 7 7 7 6 7 7 8 5 4 4 3 1 3 1 5 6 5 1 3 4 13 7 17 24 28 29 27 27 27
24 20 21 25 28 27 39 40 33 23 19 13 9 9 7 5 6 7 6 7 5 3 2 4 4 2 2 1 3 3 5 4 8 3 9 16 22 19 23 22 25 26 24 22 24
19 27 26 32 45 43 41 33 13 10 26 11 12 23 13 9 6 5 5 5 5 6 3 4 3 4 3 3 3 3 7 12 14 11 10 12 20 22 24 17 15 15 17 20 26
23 25 30 24 31 23 17 14 16 17 19 18 19 17 10 6 4 5 6 3 5 5 4 2 4 3 3 2 1 2 8 10 10 2 7 15 23 22 12 9 15 17 23 27 29
27 30 21 18 25 19 27 30 24 15 8 8 11 7 5 6 3 4 5 2 5 6 7 2 2 2 2 3 4 6 8 7 6 12 14 11 12 3 1 13 13 17 21 21 22
18 10 12 20 22 26 23 18 11 4 4 6 6 5 4 3 3 5 5 4 4 5 4 2 1 4 4 5 5 6 4 9 10 8 5 6 6 2 9 10 13 19 28 26 18
9 12 11 6 23 22 15 5 3 1 4 5 4 3 4 3 1 3 3 4 3 4 2 2 3 3 5 3 6 3 1 10 9 8 9 1 4 2 10 14 21 23 31 27 17
14 14 15 22 17 12 6 9 2 1 4 2 3 2 2 3 2 2 2 2 3 2 4 6 3 4 2 4 9 9 9 9 4 3 4 1 3 1 8 9 14 19 22 19 18
14 13 12 15 10 3 8 6 1 5 1 2 2 2 3 2 1 1 1 1 2 3 3 4 3 3 5 3 3 3 4 2 2 2 3 3 3 4 9 8 7 13 17 16 17
16 12 9 5 1 4 11 2 8 2 1 1 1 1 2 1 2 1 2 2 2 2 3 5 1 5 7 3 2 1 1 3 4 4 8 1 6 2 7 10 9 12 13 13 13
13 11 8 4 2 5 3 6 2 2 1 2 2 1 0 1 2 2 1 2 1 5 4 5 3 1 6 3 2 1 2 3 3 5 4 1 2 4 7 4 7 8 11 13 15
5 6 11 6 5 6 4 4 2 2 2 1 1 3 1 1 2 2 1 2 1 4 2 1 6 3 1 4 8 5 4 2 2 3 3 2 2 3 5 7 4 6 10 13 13
3 2 6 4 5 8 4 4 2 1 2 2 1 2 2 3 3 2 2 2 2 2 3 1 1 1 2 6 3 3 3 4 3 3 3 5 1 8 10 8 5 6 10 10 11
2 1 3 3 3 4 2 2 1 0 0 1 2 2 2 1 3 3 3 2 3 3 2 0 3 6 3 3 1 3 3 2 3 2 3 4 4 10 10 8 7 7 6 3 7
4 1 5 4 3 3 4 3 2 3 2 2 2 1 1 2 3 3 3 2 4 3 1 3 2 6 2 3 2 4 5 3 3 2 7 3 0 4 8 9 9 8 8 5 2
2 1 3 4 4 6 6 5 5 3 3 2 2 2 2 3 3 2 3 1 2 4 3 4 3 8 8 8 3 8 6 6 5 3 3 9 9 7 11 11 11 10 9 8 6
3 2 1 2 1 1 2 7 6 7 6 6 4 4 3 3 3 4 3 3 2 1 2 3 6 7 15 20 18 19 19 15 11 11 7 3 7 10 7 11 13 11 10 9 8
1 2 2 2 2 1 2 6 8 4 6 4 5 8 7 5 5 5 4 5 4 5 3 2 4 4 9 8 6 12 14 15 16 16 15 18 21 13 15 8 10 13 12 12 11
3 1 2 2 2 2 1 2 6 3 6 4 5 4 7 13 13 13 13 11 6 4 4 4 3 4 6 4 12 11 10 15 9 10 11 10 7 3 7 11 16 15 15 14 12
Wind_Direction
194 193 181 148 154 181 206 189 120 163 160 148 140 124 120 115 106 94 55 46 55 82 85 95 104 119 104 82 83 108 228 241 228 215 95 130 259 262 266 278 277 256 263 280 300
173 173 136 207 147 151 186 211 221 168 165 146 139 133 131 120 109 66 47 40 75 83 90 89 97 104 80 77 37 233 239 226 340 239 252 276 278 286 274 258 257 270 274 282 285
157 164 146 171 205 187 156 183 202 159 139 134 135 137 133 131 83 32 28 59 79 90 97 107 116 102 89 97 52 140 260 182 212 244 287 278 270 264 265 266 265 265 268 273 279
143 153 165 166 151 143 159 173 173 187 206 132 138 139 140 130 88 35 23 50 73 79 100 109 104 95 114 135 110 224 225 226 256 244 274 275 287 264 265 263 264 268 268 269 269
133 149 164 163 151 164 143 129 154 150 171 148 140 138 131 80 80 54 34 39 52 73 103 108 95 114 131 129 155 237 238 255 262 268 271 273 268 274 274 263 268 268 270 269 272
124 142 152 150 109 144 136 142 139 138 149 138 134 125 105 82 96 71 31 39 67 73 90 103 106 106 108 115 242 162 271 272 277 270 265 268 274 297 264 269 269 263 266 272 271
113 132 143 111 122 138 136 151 141 136 120 137 128 122 86 93 100 75 53 68 64 74 88 92 106 116 125 133 18 306 293 268 250 260 271 299 266 234 271 268 272 280 276 271 269
101 115 140 154 139 134 134 137 144 134 138 134 134 122 84 107 106 87 66 64 60 63 74 79 104 105 79 125 155 259 249 284 131 208 264 306 283 237 260 277 286 287 284 277 275
72 67 88 146 136 133 137 140 129 131 131 137 140 110 114 119 108 83 67 45 40 40 53 57 107 90 100 250 233 212 288 284 295 169 296 265 296 280 291 289 291 293 287 282 283
84 85 97 122 130 120 138 135 119 120 123 122 110 90 117 123 105 85 46 33 23 27 58 44 54 105 79 311 289 311 307 299 287 339 300 284 277 289 298 300 298 292 289 287 289
84 94 116 131 110 110 113 120 128 85 71 74 85 92 116 115 100 73 35 360 22 46 28 29 75 54 57 42 33 348 297 292 286 295 292 282 293 295 305 306 312 305 300 299 299
90 105 104 109 121 111 138 112 108 120 80 74 81 88 88 93 99 41 26 36 38 55 2 156 81 77 103 108 8 358 311 304 301 321 290 296 297 295 308 323 322 314 311 308 305
95 113 113 107 122 123 106 108 114 112 94 55 59 62 50 61 77 33 24 16 19 32 16 15 71 138 245 238 274 285 268 291 283 313 283 299 282 275 34 327 322 337 336 320 316
112 75 96 111 117 122 111 118 119 107 94 24 15 37 24 49 73 32 24 31 35 1 350 277 123 217 251 270 227 299 230 257 277 320 320 350 297 274 337 328 346 349 345 331 339
79 88 125 140 127 118 115 90 337 198 79 4 19 20 15 43 20 23 6 23 17 328 319 76 201 238 271 271 194 292 199 283 282 266 302 150 258 280 347 335 340 344 336 347 354
81 91 120 135 135 113 72 355 30 240 76 18 343 3 354 39 32 325 336 302 258 270 227 257 211 252 275 286 244 277 304 296 245 248 257 192 269 331 354 331 330 338 349 2 12
70 80 130 154 152 131 357 351 229 54 298 79 61 9 6 337 284 257 286 311 331 337 3 295 202 224 233 285 181 210 307 318 242 222 330 175 233 357 340 348 328 336 349 349 14
73 76 98 147 181 320 341 17 64 32 20 17 10 321 294 290 206 257 303 317 190 295 317 349 261 196 168 245 296 244 315 331 308 334 314 162 311 355 349 18 14 8 355 3 1
72 73 71 53 341 330 356 53 89 146 128 157 165 260 280 221 275 292 256 306 274 210 345 335 286 226 207 208 232 100 300 347 269 237 272 296 209 189 349 358 7 357 348 347 10
61 71 46 44 22 12 59 91 124 200 174 199 262 234 255 288 266 293 275 138 233 220 261 33 289 234 71 194 231 249 340 241 194 309 304 256 271 304 313 317 10 341 329 339 350
7 75 26 80 67 58 65 57 66 242 228 237 286 261 287 328 295 302 328 168 211 134 210 269 240 222 246 204 215 186 208 233 280 242 305 314 268 192 212 217 234 257 299 337 351
341 281 5 110 61 69 89 107 158 157 246 273 273 298 312 297 271 272 285 253 171 168 301 81 307 280 272 111 320 289 274 278 279 185 250 288 271 175 209 222 228 209 237 277 330
349 320 1 161 127 121 138 138 192 188 201 191 222 197 243 262 288 247 266 319 185 204 248 163 226 296 201 153 143 236 194 233 267 302 234 267 342 183 219 232 230 211 216 240 257
1 318 12 39 97 140 150 161 163 204 205 229 260 199 247 249 220 284 264 259 232 236 243 195 247 239 258 293 316 262 226 219 205 258 300 247 284 225 221 226 221 216 213 225 266
59 89 32 357 4 252 159 167 169 181 205 198 194 217 209 232 224 224 235 278 206 242 162 243 269 260 263 269 271 267 266 246 219 232 251 4 261 288 255 223 225 226 215 223 237
52 139 93 91 37 282 272 223 201 185 186 196 218 185 201 236 239 245 208 208 228 175 206 197 274 301 285 270 252 255 254 242 241 245 252 263 276 266 250 224 217 219 220 232 236
15 76 108 143 141 197 254 249 232 202 225 246 206 194 229 248 252 258 255 256 261 232 215 215 255 312 272 312 303 272 250 211 216 213 218 218 237 171 202 220 227 226 226 233 236
Height
1471 1473 1476 1481 1483 1484 1491 1492 1491 1500 1504 1507 1510 1511 1513 1516 1518 1520 1519 1525 1525 1524 1525 1525 1527 1528 1530 1532 1533 1534 1532 1528 1529 1533 1531 1537 1536 1536 1536 1536 1536 1534 1531 1530 1527
1470 1473 1476 1479 1484 1487 1490 1489 1496 1498 1504 1507 1511 1513 1514 1517 1519 1518 1527 1526 1526 1526 1526 1527 1529 1530 1532 1535 1536 1535 1532 1529 1537 1536 1534 1537 1538 1537 1536 1532 1532 1531 1530 1529 1526
1469 1473 1476 1479 1481 1483 1483 1491 1498 1498 1502 1507 1512 1515 1515 1517 1519 1529 1527 1527 1528 1528 1527 1528 1530 1532 1534 1536 1539 1539 1533 1537 1539 1540 1540 1537 1536 1536 1533 1531 1529 1526 1525 1525 1524
1470 1474 1478 1481 1483 1485 1489 1495 1500 1501 1505 1508 1514 1516 1518 1519 1527 1531 1530 1529 1529 1529 1529 1529 1531 1532 1534 1535 1539 1539 1539 1539 1538 1540 1541 1538 1535 1531 1531 1527 1525 1523 1523 1521 1519
1472 1476 1478 1481 1484 1488 1492 1495 1496 1500 1508 1513 1515 1517 1520 1523 1532 1533 1532 1531 1531 1531 1531 1530 1532 1535 1533 1537 1539 1537 1539 1540 1538 1538 1538 1538 1532 1531 1525 1521 1520 1519 1519 1518 1516
1476 1477 1480 1482 1483 1486 1488 1494 1498 1503 1509 1516 1518 1519 1522 1527 1534 1534 1535 1534 1533 1533 1532 1533 1534 1536 1537 1540 1539 1540 1540 1538 1536 1536 1536 1534 1529 1531 1517 1516 1516 1515 1513 1514 1512
1478 1480 1481 1482 1484 1486 1489 1496 1503 1507 1512 1517 1519 1523 1524 1533 1536 1537 1537 1536 1536 1535 1533 1534 1535 1537 1540 1540 1542 1541 1538 1535 1532 1534 1534 1533 1523 1519 1514 1514 1513 1512 1509 1507 1505
1481 1481 1481 1483 1484 1487 1492 1499 1504 1511 1516 1519 1523 1524 1533 1537 1538 1539 1539 1538 1537 1536 1536 1536 1535 1536 1539 1542 1542 1539 1539 1524 1530 1533 1532 1532 1510 1513 1512 1512 1510 1507 1505 1502 1498
1482 1481 1480 1482 1486 1491 1496 1502 1509 1515 1521 1523 1527 1527 1539 1540 1540 1539 1540 1539 1538 1537 1537 1537 1535 1538 1540 1538 1535 1536 1521 1527 1525 1532 1531 1530 1512 1511 1511 1510 1505 1502 1499 1495 1492
1485 1483 1483 1486 1491 1493 1499 1507 1517 1523 1526 1530 1529 1532 1540 1542 1540 1540 1541 1540 1539 1537 1538 1538 1538 1537 1539 1536 1522 1532 1532 1532 1529 1528 1530 1525 1511 1508 1506 1504 1499 1495 1492 1490 1486
1491 1491 1489 1492 1494 1499 1507 1515 1525 1531 1528 1531 1535 1533 1538 1542 1541 1542 1541 1541 1539 1539 1538 1540 1539 1537 1543 1543 1544 1546 1541 1535 1528 1527 1529 1517 1508 1502 1500 1499 1495 1492 1489 1485 1481
1500 1501 1502 1504 1507 1509 1513 1513 1516 1525 1535 1538 1538 1538 1540 1541 1542 1542 1542 1543 1541 1540 1540 1539 1540 1543 1545 1545 1544 1546 1547 1529 1524 1528 1527 1513 1503 1496 1497 1498 1496 1492 1487 1482 1476
1507 1508 1510 1513 1513 1514 1513 1516 1520 1523 1531 1540 1541 1542 1542 1543 1544 1545 1544 1543 1542 1539 1540 1540 1541 1544 1544 1542 1540 1534 1534 1531 1534 1527 1517 1512 1490 1494 1496 1495 1495 1491 1488 1481 1474
1516 1515 1515 1516 1521 1520 1520 1522 1524 1525 1530 1545 1544 1544 1544 1543 1545 1544 1544 1545 1543 1543 1544 1542 1543 1543 1542 1538 1536 1527 1530 1533 1534 1532 1514 1514 1504 1488 1493 1490 1492 1489 1484 1478 1472
1520 1520 1520 1520 1522 1524 1528 1527 1526 1526 1526 1548 1546 1545 1544 1546 1547 1545 1545 1545 1546 1546 1548 1540 1539 1540 1538 1532 1535 1528 1533 1531 1532 1532 1529 1507 1518 1484 1494 1493 1492 1488 1485 1479 1473
1523 1522 1523 1525 1526 1526 1527 1527 1527 1525 1542 1550 1548 1546 1545 1546 1547 1547 1548 1547 1547 1545 1543 1541 1541 1540 1534 1535 1533 1530 1530 1526 1527 1530 1521 1506 1510 1484 1501 1504 1497 1492 1488 1483 1474
1527 1526 1527 1527 1528 1528 1528 1527 1524 1531 1553 1550 1547 1547 1548 1546 1546 1548 1547 1543 1542 1541 1538 1532 1534 1535 1536 1532 1529 1532 1531 1513 1512 1512 1498 1512 1513 1501 1507 1505 1503 1498 1492 1485 1477
1530 1530 1530 1530 1530 1529 1528 1528 1533 1549 1550 1550 1549 1549 1547 1547 1546 1545 1543 1538 1543 1540 1536 1535 1526 1530 1532 1528 1528 1526 1531 1522 1514 1502 1500 1503 1501 1503 1508 1506 1503 1499 1493 1486 1479
1532 1532 1531 1532 1531 1531 1531 1538 1548 1548 1549 1549 1549 1545 1543 1545 1545 1543 1541 1539 1538 1540 1536 1530 1527 1526 1528 1527 1528 1522 1523 1522 1522 1509 1508 1499 1502 1506 1504 1503 1502 1498 1491 1484 1481
1533 1532 1532 1532 1531 1531 1533 1543 1548 1550 1550 1549 1545 1546 1541 1541 1541 1540 1537 1538 1537 1539 1539 1536 1536 1523 1524 1527 1525 1524 1524 1520 1520 1511 1501 1486 1497 1496 1501 1500 1499 1494 1487 1484 1480
1535 1534 1533 1531 1532 1533 1543 1547 1549 1550 1550 1549 1547 1545 1544 1542 1542 1538 1536 1537 1538 1539 1540 1539 1540 1523 1526 1521 1514 1521 1518 1519 1518 1512 1499 1490 1483 1490 1495 1493 1492 1491 1486 1484 1480
1536 1536 1533 1531 1534 1540 1543 1547 1549 1550 1550 1549 1549 1546 1545 1544 1542 1540 1537 1536 1537 1537 1536 1537 1535 1529 1514 1518 1520 1519 1515 1516 1511 1504 1502 1498 1483 1479 1484 1487 1487 1487 1486 1485 1483
1536 1536 1534 1532 1534 1538 1546 1547 1547 1547 1547 1546 1545 1545 1545 1544 1542 1540 1538 1537 1537 1537 1534 1536 1532 1526 1508 1517 1517 1514 1514 1516 1517 1517 1500 1491 1469 1479 1480 1483 1484 1486 1485 1484 1483
1537 1537 1535 1534 1534 1534 1538 1542 1543 1545 1546 1546 1545 1545 1544 1541 1542 1538 1536 1536 1536 1537 1536 1536 1529 1523 1514 1503 1512 1509 1509 1512 1512 1510 1489 1483 1469 1473 1476 1478 1479 1480 1482 1481 1479
1537 1540 1541 1538 1539 1540 1538 1538 1538 1539 1540 1541 1542 1541 1540 1538 1537 1536 1536 1535 1535 1536 1537 1536 1527 1523 1517 1509 1508 1505 1502 1502 1511 1498 1497 1476 1480 1469 1470 1472 1474 1475 1477 1478 1477
1538 1539 1539 1540 1542 1542 1543 1540 1535 1536 1537 1538 1536 1536 1538 1536 1531 1531 1532 1532 1528 1533 1533 1535 1526 1523 1513 1501 1503 1502 1493 1492 1492 1491 1488 1484 1475 1466 1466 1470 1473 1472 1473 1474 1474
1538 1538 1538 1540 1541 1541 1536 1535 1536 1537 1533 1532 1532 1534 1534 1530 1529 1529 1530 1530 1529 1528 1528 1529 1525 1521 1503 1501 1498 1484 1471 1478 1477 1476 1474 1475 1461 1465 1466 1467 1466 1467 1469 1470 1471